Regional Weather Roundup
Issued by NWS

Home | Current Version | Previous Version | Graphics & Text | Print | Product List | Glossary On
Versions: 1 2 3 4 5 6 7 8 9 10 11 12 13 14 15 16 17 18 19 20 21 22 23 24 25 26 27 28 29 30 31 32 33 34 35 36 37 38 39 40 41 42 43 44 45 46 47 48 49 50
000
ASUS44 KMEG 231410
RWRTN
TENNESSEE HOURLY STATE WEATHER ROUNDUP
NATIONAL WEATHER SERVICE MEMPHIS TN
900 AM CDT WED APR 23 2014

TNZ002-004-019-021-049-052-054-088>092-231500-
WEST TENNESSEE

CITY           SKY/WX    TMP DP  RH WIND       PRES   REMARKS
MEMPHIS INTL   MOSUNNY   64  40  41 E9        30.05S
NWS MEMPHIS      N/A     62 N/A N/A MISG        N/A
JACKSON        SUNNY     60  41  49 E7        30.06S
DYERSBURG      SUNNY     59  37  44 E9        30.08S
UNION CITY     SUNNY     55  43  62 E6        30.08R
PARIS          SUNNY     55  38  52 E10       30.09R
LEXINGTON      SUNNY     55  41  58 E6        30.06R
$$

TNZ008-025-027-028-033-062-065-066-231500-
NORTH MIDDLE TENNESSEE

CITY           SKY/WX    TMP DP  RH WIND       PRES   REMARKS
NASHVILLE      SUNNY     57  33  40 NE15      30.09R
DICKSON        SUNNY     54  34  47 E9        30.07R
PORTLAND       SUNNY     52  34  50 NE12      30.08R
CLARKSVILLE    SUNNY     53  36  52 E12       30.10R
SMYRNA         SUNNY     56  35  45 NE12      30.09R
MURFREESBORO   SUNNY     56  36  47 NE8       30.07R
COOKEVILLE     SUNNY     54  36  50 N7        30.06R
GALLATIN       SUNNY     54  35  48 E7        30.10R
CROSSVILLE     SUNNY     51  30  44 NE10      30.05R
$$

TNZ061-075-076-078-094-096-097-231500-
SOUTH MIDDLE TENNESSEE

CITY           SKY/WX    TMP DP  RH WIND       PRES   REMARKS
LEWISBURG      SUNNY     56  38  50 E9        30.06R
FAYETTEVILLE   SUNNY     55  39  54 NE12      30.04R
TULLAHOMA      SUNNY     55  34  44 NE9       30.06R
WINCHESTER     SUNNY     55  39  54 NE6       30.05R
MCMINNVILLE    SUNNY     55  37  50 NE9       30.06R
COLUMBIA       SUNNY     57  46  67 NE9       30.06R
SHELBYVILLE    SUNNY     55  41  58 N8        30.07R
$$

TNZ017-018-042-046-047-231500-
NORTHEAST TENNESSEE

CITY           SKY/WX    TMP DP  RH WIND       PRES   REMARKS
TRI CITIES     SUNNY     54  24  31 N7        30.00R
ELIZABETHTON   SUNNY     52  23  32 CALM      29.99R
$$

TNZ012-013-036-069-073-074-231500-
CENTRAL EAST TENNESSEE

CITY           SKY/WX    TMP DP  RH WIND       PRES   REMARKS
KNOXVILLE      MOSUNNY   55  34  45 NE9       30.03S
OAK RIDGE      SUNNY     55  32  41 VRB6      30.05S
$$

TNZ083-085-099-231500-
SOUTHEAST TENNESSEE

CITY           SKY/WX    TMP DP  RH WIND       PRES   REMARKS
CHATTANOOGA    SUNNY     59  35  40 N10       30.03R
$$

SKY/WX REPORTED AS FAIR MEANS FEW OR NO CLOUDS BELOW
12 THOUSAND FEET.




USA.gov is the U.S. government's official web portal to all federal, state and local government web resources and services.